Corpus Christi NAS, TX

4:52 PM CDT on July 20, 2017 (GMT -0500)
Corpus Christi Naval Air Station-Truax

Weather History for KNGP - November, 2012

Change the Weather History Date:

Thursday, November 29, 2012

  Actual Average Record
Temperature  
Mean Temperature 67 °F -  
Max Temperature 73 °F 69 °F 84 °F (2016)
Min Temperature 61 °F 55 °F 37 °F (2001)
Cooling Degree Days 2    
Growing Degree Days 17 (Base 50)    
Moisture  
Dew Point 63 °F    
Average Humidity 85    
Maximum Humidity 96    
Minimum Humidity 71    
Precipitation  
Precipitation 0.00 in - - ()
Sea Level Pressure  
Sea Level Pressure 30.18 in    
Wind  
Wind Speed 9 mph (NE)    
Max Wind Speed 15 mph    
Max Gust Speed 25 mph    
Visibility 10 miles    
Events      
Averages and records for this station are not official NWS values.
T = Trace of Precipitation, MM = Missing Value Source: NWS Daily Summary

Daily Weather History Graph

Daily Weather History Graph

Search for Another Location

Airport or City:

Trip Planner

Search our weather history database for the weather conditions in past years. The results will help you decide how hot, cold, wet, or windy it might be!

Date:

Astronomy

Nov. 29, 2012 Rise Set
Actual Time 7:01 AM CST 5:33 PM CST
Civil Twilight 6:36 AM CST 5:59 PM CST
Nautical Twilight 6:07 AM CST 6:27 PM CST
Astronomical Twilight 5:39 AM CST 6:56 PM CST
Moon 6:38 PM CST (11/29) 7:48 AM CST (11/29)
Length of Visible Light 11h 22m
Length of Day
10h 32m
Full, 99% of the Moon is Illuminated
Nov 29
Full
Dec 6
Last Quarter
Dec 13
New
Dec 19
First Quarter
Dec 28
Full

Hourly Weather History & Observations

Time (CST) Temp. Dew Point Humidity Pressure Visibility Wind Dir Wind Speed Gust Speed Precip Events Conditions
12:56 AM 62.1 °F 55.9 °F 80% 30.26 in 10.0 mi NE 5.8 mph - N/A   Clear
1:56 AM 62.1 °F 57.9 °F 86% 30.24 in 10.0 mi NE 9.2 mph - N/A   Clear
2:56 AM 62.1 °F 57.0 °F 84% 30.22 in 10.0 mi NE 10.4 mph - N/A   Clear
3:56 AM 61.0 °F 59.0 °F 93% 30.22 in 10.0 mi NE 12.7 mph - N/A   Clear
4:56 AM 62.1 °F 59.0 °F 90% 30.21 in 10.0 mi NE 15.0 mph - N/A   Clear
5:56 AM 62.1 °F 60.1 °F 93% 30.20 in 10.0 mi NE 15.0 mph - N/A   Mostly Cloudy
6:56 AM 62.1 °F 60.1 °F 93% 30.21 in 10.0 mi ENE 13.8 mph - N/A   Mostly Cloudy
7:56 AM 62.1 °F 60.1 °F 93% 30.22 in 10.0 mi ENE 12.7 mph - N/A   Mostly Cloudy
8:56 AM 64.9 °F 62.1 °F 90% 30.23 in 10.0 mi ENE 11.5 mph - N/A   Mostly Cloudy
9:56 AM 68.0 °F 64.0 °F 87% 30.24 in 10.0 mi NE 12.7 mph - N/A   Mostly Cloudy
10:56 AM 69.1 °F 64.0 °F 84% 30.23 in 10.0 mi ENE 11.5 mph 25.3 mph N/A   Overcast
11:56 AM 70.0 °F 64.9 °F 84% 30.21 in 10.0 mi ENE 10.4 mph - N/A   Overcast
12:56 PM 72.0 °F 64.9 °F 78% 30.18 in 10.0 mi ENE 10.4 mph - N/A   Mostly Cloudy
1:56 PM 73.0 °F 64.9 °F 76% 30.14 in 10.0 mi ENE 9.2 mph - N/A   Mostly Cloudy
2:56 PM 73.9 °F 64.9 °F 73% 30.13 in 10.0 mi NE 8.1 mph - N/A   Scattered Clouds
3:56 PM 73.0 °F 63.0 °F 71% 30.12 in 10.0 mi Variable 4.6 mph - N/A   Scattered Clouds
4:56 PM 71.1 °F 64.0 °F 78% 30.12 in 10.0 mi ENE 5.8 mph - N/A   Mostly Cloudy
5:56 PM 70.0 °F 64.0 °F 81% 30.13 in 10.0 mi ENE 5.8 mph - N/A   Mostly Cloudy
6:56 PM 70.0 °F 64.0 °F 81% 30.12 in 10.0 mi East 6.9 mph - N/A   Mostly Cloudy
7:56 PM 69.1 °F 64.9 °F 87% 30.14 in 10.0 mi ENE 4.6 mph - N/A   Mostly Cloudy
8:56 PM 69.1 °F 64.9 °F 87% 30.15 in 10.0 mi East 4.6 mph - N/A   Overcast
9:56 PM 68.0 °F 66.0 °F 93% 30.15 in 10.0 mi NNE 3.5 mph - N/A   Overcast
10:56 PM 69.1 °F 66.0 °F 90% 30.15 in 10.0 mi NE 5.8 mph - N/A   Mostly Cloudy
11:56 PM 68.0 °F 66.9 °F 96% 30.14 in 10.0 mi NE 8.1 mph - N/A   Overcast